CW0641 Weather Reports


Display with metric or nautical units.
time (UTC)temp
F
wind
direction
speed
MPH
gust
MPH
rain 1hr
in
rain 24hr
in
rain mn
in
humidity
%
barometer
mb
20260902071734 85 24 1.0 5.0 0.00 0.00 0.00 39 1012.8
20260902070712 84 329 2.0 5.0 0.00 0.00 0.00 41 1012.8
20260902070212 84 287 1.0 5.0 0.00 0.00 0.00 42 1012.8
20260902065712 83 311 1.0 4.0 0.00 0.00 0.00 43 1012.9
20260902065211 83 5 1.0 4.0 0.00 0.00 0.00 44 1012.9
20260902064711 83 300 1.0 4.0 0.00 0.00 0.00 44 1012.9
20260902064210 83 346 0.0 3.0 0.00 0.00 0.00 45 1013.0
20260902063707 82 329 0.0 3.0 0.00 0.00 0.00 47 1012.9
20260902063201 82 336 0.0 3.0 0.00 0.00 0.00 48 1012.9
20260902062703 81 336 0.0 0.0 0.00 0.00 0.00 49 1012.9
20260902061702 80 344 0.0 2.0 0.00 0.00 0.00 50 1013.0
20260902061157 79 347 0.0 2.0 0.00 0.00 0.00 51 1012.9
20260902060158 79 348 0.0 2.0 0.00 0.00 0.00 57 1012.9
20260902055655 78 349 0.0 2.0 0.00 0.00 0.00 58 1012.9
20260902055159 78 348 0.0 0.0 0.00 0.00 0.00 59 1012.9
20260902054645 77 348 0.0 0.0 0.00 0.00 0.00 61 1012.9
20260902053634 76 41 0.0 0.0 0.00 0.00 0.00 64 1012.8
20260902052630 74 41 0.0 0.0 0.00 0.00 0.00 69 1012.9
20260902051629 73 41 0.0 3.0 0.00 0.00 0.00 75 1012.9
20260902051131 72 45 0.0 2.0 0.00 0.00 0.00 77 1012.8
20260902050625 71 46 0.0 0.0 0.00 0.00 0.00 79 1012.9
20260902050124 71 47 0.0 0.0 0.00 0.00 0.00 81 1013.0
20260902045622 71 47 0.0 0.0 0.00 0.00 0.00 83 1012.9
20260902045119 70 46 0.0 2.0 0.00 0.00 0.00 84 1012.9
20260902044620 70 46 0.0 2.0 0.00 0.00 0.00 85 1012.9
20260902044115 70 46 0.0 3.0 0.00 0.00 0.00 85 1012.9
20260902043113 70 59 0.0 0.0 0.00 0.00 0.00 88 1012.9
20260902041044 69 59 0.0 0.0 0.00 0.00 0.00 88 1012.6
20260902040603 69 59 0.0 0.0 0.00 0.00 0.00 87 1012.8
20260902040039 69 59 0.0 0.0 0.00 0.00 0.00 88 1012.8
20260902035604 69 59 0.0 0.0 0.00 0.00 0.00 88 1012.6
20260902034600 69 59 0.0 2.0 0.00 0.00 0.00 87 1012.6
20260902034017 69 59 0.0 2.0 0.00 0.00 0.00 87 1012.6
20260902033554 69 59 0.0 1.0 0.00 0.00 0.00 87 1012.5
20260902033019 69 59 0.0 1.0 0.00 0.00 0.00 87 1012.5
20260902032553 69 59 0.0 1.0 0.00 0.00 0.00 87 1012.5
20260902032012 69 59 0.0 1.0 0.00 0.00 0.00 87 1012.5
20260902031005 69 59 0.0 2.0 0.00 0.00 0.00 86 1012.4
20260902030552 69 60 0.0 2.0 0.00 0.00 0.00 86 1012.3
20260902030005 69 60 0.0 3.0 0.00 0.00 0.00 86 1012.4
20260902025545 69 60 0.0 3.0 0.00 0.00 0.00 86 1012.3
20260902024953 69 63 0.0 3.0 0.00 0.00 0.00 86 1012.3
20260902024547 70 63 1.0 4.0 0.00 0.00 0.00 86 1012.3
20260902023941 70 21 1.0 6.0 0.00 0.00 0.00 86 1012.2
20260902023543 70 355 2.0 6.0 0.00 0.00 0.00 85 1012.2
20260902022940 70 343 2.0 6.0 0.00 0.00 0.00 85 1012.1
20260902022540 70 323 2.0 6.0 0.00 0.00 0.00 85 1012.1
20260902021938 70 286 1.0 5.0 0.00 0.00 0.00 84 1012.1
20260902021540 70 308 1.0 5.0 0.00 0.00 0.00 84 1012.1
20260902020931 70 298 1.0 5.0 0.00 0.00 0.00 84 1012.1
20260902020537 70 298 2.0 6.0 0.00 0.00 0.00 83 1012.0
20260902015930 70 308 2.0 6.0 0.00 0.00 0.00 83 1012.0
20260902015539 70 319 2.0 5.0 0.00 0.00 0.00 82 1012.0
20260902014930 70 323 2.0 6.0 0.00 0.00 0.00 82 1012.1
20260902014536 70 342 2.0 6.0 0.00 0.00 0.00 81 1012.1
20260902012928 70 307 2.0 6.0 0.00 0.00 0.00 80 1012.0
20260902012532 70 341 2.0 6.0 0.00 0.00 0.00 79 1012.0
20260902011931 70 333 2.0 6.0 0.00 0.00 0.00 79 1012.0
20260902011527 70 338 2.0 8.0 0.00 0.00 0.00 79 1012.0
20260902010925 70 318 2.0 8.0 0.00 0.00 0.00 79 1012.0
20260902010524 70 355 2.0 8.0 0.00 0.00 0.00 78 1012.0
20260902005525 70 325 3.0 6.0 0.00 0.00 0.00 78 1012.0
20260902002921 69 350 1.0 5.0 0.00 0.00 0.00 80 1011.8
20260902002519 69 328 1.0 5.0 0.00 0.00 0.00 81 1011.8
20260902001922 69 355 2.0 5.0 0.00 0.00 0.00 81 1011.8
20260902001521 69 325 2.0 5.0 0.00 0.00 0.00 82 1011.8
20260902000923 69 321 2.0 6.0 0.00 0.00 0.00 82 1011.9
20260902000515 69 355 1.0 6.0 0.00 0.00 0.00 83 1011.8
20260901235918 68 313 1.0 4.0 0.00 0.00 0.00 84 1011.8
20260901235511 68 315 1.0 4.0 0.00 0.00 0.00 84 1011.8
20260901234916 68 321 0.0 3.0 0.00 0.00 0.00 85 1011.8
20260901234515 68 308 0.0 3.0 0.00 0.00 0.00 85 1011.8
20260901233916 68 323 0.0 3.0 0.00 0.00 0.00 86 1011.8
20260901232913 68 338 1.0 3.0 0.00 0.00 0.00 87 1011.8
20260901232508 68 344 1.0 4.0 0.00 0.00 0.00 87 1011.9
20260901231507 68 342 1.0 4.0 0.00 0.00 0.00 88 1012.0
20260901230910 68 350 1.0 4.0 0.00 0.00 0.00 88 1012.0
20260901230509 68 334 1.0 4.0 0.00 0.00 0.00 89 1012.0
20260901225910 68 331 1.0 6.0 0.00 0.00 0.00 89 1012.1
20260901225502 69 331 2.0 6.0 0.00 0.00 0.00 89 1012.1
20260901223912 70 355 0.0 3.0 0.00 0.00 0.00 90 1012.2
20260901222909 70 355 1.0 4.0 0.00 0.00 0.00 89 1012.1
20260901221910 71 289 1.0 4.0 0.00 0.00 0.00 89 1012.4
20260901220911 71 339 1.0 5.0 0.00 0.00 0.00 89 1012.5
20260901220456 71 313 0.0 3.0 0.00 0.00 0.00 89 1012.6
20260901215910 71 314 0.0 3.0 0.00 0.00 0.00 89 1012.6
20260901215454 71 323 1.0 4.0 0.00 0.00 0.00 89 1012.6
20260901214912 71 324 1.0 4.0 0.00 0.00 0.00 88 1012.6
20260901214447 71 319 0.0 3.0 0.00 0.00 0.00 88 1012.5
20260901213908 71 319 1.0 4.0 0.00 0.00 0.00 88 1012.6
20260901213452 72 321 2.0 7.0 0.00 0.00 0.00 88 1012.5
20260901212909 72 319 2.0 7.0 0.00 0.00 0.00 87 1012.6
20260901212449 72 306 1.0 5.0 0.00 0.00 0.00 87 1012.5
20260901211908 72 319 0.0 4.0 0.00 0.00 0.00 87 1012.6
20260901210451 72 304 2.0 6.0 0.00 0.00 0.00 86 1012.6
20260901205907 72 316 2.0 7.0 0.00 0.00 0.00 85 1012.4
20260901205445 72 309 2.0 8.0 0.00 0.00 0.00 85 1012.5
20260901204446 72 290 2.0 9.0 0.00 0.00 0.00 84 1012.5
20260901203901 72 313 2.0 5.0 0.00 0.00 0.00 84 1012.5
20260901203439 72 332 1.0 4.0 0.00 0.00 0.00 84 1012.6
20260901202904 72 11 1.0 3.0 0.00 0.00 0.00 84 1012.5
20260901202440 72 290 1.0 4.0 0.00 0.00 0.00 84 1012.5
20260901201855 72 325 1.0 4.0 0.00 0.00 0.00 84 1012.5
20260901201454 72 288 2.0 6.0 0.00 0.00 0.00 84 1012.6
20260901200853 72 343 2.0 8.0 0.00 0.00 0.00 83 1012.5
20260901200453 72 303 2.0 8.0 0.00 0.00 0.00 83 1012.3
20260901195854 72 298 2.0 5.0 0.00 0.00 0.00 84 1012.5
20260901194849 72 284 1.0 5.0 0.00 0.00 0.00 83 1012.3
20260901194439 72 292 2.0 6.0 0.00 0.00 0.00 83 1012.5
20260901193434 73 333 2.0 5.0 0.00 0.00 0.00 83 1012.4
20260901192427 73 317 2.0 7.0 0.00 0.00 0.00 83 1012.6
20260901191849 73 319 2.0 8.0 0.00 0.00 0.00 83 1012.6
20260901190851 73 13 3.0 8.0 0.00 0.00 0.00 83 1012.8
20260901190430 73 336 3.0 8.0 0.00 0.00 0.00 83 1012.6
20260901185845 73 344 3.0 8.0 0.00 0.00 0.00 82 1012.8
20260901185435 73 300 3.0 7.0 0.00 0.00 0.00 82 1012.8
20260901184845 73 349 3.0 6.0 0.00 0.00 0.00 82 1012.6
20260901184426 73 26 2.0 8.0 0.00 0.00 0.00 82 1012.8
20260901183421 74 355 3.0 8.0 0.00 0.00 0.00 81 1012.8
20260901182420 74 355 3.0 10.0 0.00 0.00 0.00 81 1012.8
20260901181416 74 329 3.0 9.0 0.00 0.00 0.00 81 1012.6
20260901180431 74 316 2.0 9.0 0.00 0.00 0.00 80 1012.6
20260901175844 74 320 2.0 7.0 0.00 0.00 0.00 80 1012.9
20260901175415 74 19 2.0 8.0 0.00 0.00 0.00 80 1012.8
20260901174846 74 0 3.0 9.0 0.00 0.00 0.00 80 1012.8
20260901174413 74 340 4.0 10.0 0.00 0.00 0.00 79 1012.8
20260901173423 74 348 3.0 9.0 0.00 0.00 0.00 79 1012.6
20260901172845 75 346 3.0 9.0 0.00 0.00 0.00 79 1012.5
20260901172422 75 315 4.0 10.0 0.00 0.00 0.00 79 1012.4
20260901171846 75 0 4.0 12.0 0.00 0.00 0.00 79 1012.3
20260901171407 75 355 5.0 12.0 0.00 0.00 0.00 78 1012.4
20260901170849 75 314 5.0 12.0 0.00 0.00 0.00 78 1012.1
20260901170408 75 0 4.0 10.0 0.00 0.00 0.00 78 1012.2
20260901165845 75 348 4.0 10.0 0.00 0.00 0.00 78 1012.1
20260901165402 76 347 4.0 9.0 0.00 0.00 0.00 78 1012.1
20260901164847 76 349 4.0 10.0 0.00 0.00 0.00 77 1012.0
20260901164414 76 327 4.0 11.0 0.00 0.00 0.00 77 1012.0
20260901163844 76 5 5.0 12.0 0.00 0.00 0.00 76 1011.9
20260901163403 76 5 4.0 12.0 0.00 0.00 0.00 76 1011.9
20260901162847 76 333 4.0 11.0 0.00 0.00 0.00 76 1012.0
20260901162412 76 333 5.0 12.0 0.00 0.00 0.00 75 1011.9
20260901161358 77 342 5.0 11.0 0.00 0.00 0.00 74 1011.7
20260901160844 77 309 5.0 12.0 0.00 0.00 0.00 74 1011.9
20260901155844 78 339 5.0 12.0 0.00 0.00 0.00 72 1011.7
20260901155410 78 348 5.0 13.0 0.00 0.00 0.00 71 1011.7
20260901154842 78 313 5.0 13.0 0.00 0.00 0.00 70 1011.7
20260901152839 80 355 4.0 11.0 0.00 0.00 0.00 67 1011.5
20260901152354 80 345 4.0 11.0 0.00 0.00 0.00 67 1011.6
20260901151404 80 347 4.0 10.0 0.00 0.00 0.00 65 1011.6
20260901150838 80 333 4.0 11.0 0.00 0.00 0.00 65 1011.6
20260901150346 81 329 4.0 11.0 0.00 0.00 0.00 65 1011.7
20260901145836 81 355 4.0 11.0 0.00 0.00 0.00 64 1011.6
20260901144839 82 20 3.0 9.0 0.00 0.00 0.00 63 1011.6
20260901143340 83 313 4.0 9.0 0.00 0.00 0.00 62 1011.7
20260901142838 83 12 3.0 10.0 0.00 0.00 0.00 62 1011.6
20260901142340 83 19 3.0 11.0 0.00 0.00 0.00 62 1011.6
20260901141358 83 344 4.0 10.0 0.00 0.00 0.00 61 1011.3
20260901140836 83 349 4.0 10.0 0.00 0.00 0.00 61 1011.4
20260901135836 84 5 4.0 11.0 0.00 0.00 0.00 61 1011.5
20260901135337 84 29 4.0 12.0 0.00 0.00 0.00 61 1011.4
20260901134402 84 281 4.0 10.0 0.00 0.00 0.00 60 1011.5
20260901133834 85 346 4.0 10.0 0.00 0.00 0.00 59 1011.5
20260901133348 85 347 4.0 10.0 0.00 0.00 0.00 59 1011.5
20260901132832 85 340 4.0 11.0 0.00 0.00 0.00 60 1011.6
20260901132403 85 345 4.0 11.0 0.00 0.00 0.00 60 1011.5
20260901131831 85 321 4.0 11.0 0.00 0.00 0.00 60 1011.5
20260901131341 85 306 5.0 11.0 0.00 0.00 0.00 59 1011.5
20260901130832 85 0 5.0 10.0 0.00 0.00 0.00 59 1011.4
20260901130344 85 5 5.0 12.0 0.00 0.00 0.00 58 1011.5
20260901125830 85 9 6.0 12.0 0.00 0.00 0.00 58 1011.3
20260901125336 85 346 5.0 12.0 0.00 0.00 0.00 58 1011.5
20260901124830 85 0 4.0 11.0 0.00 0.00 0.00 57 1011.4
20260901123831 85 296 5.0 12.0 0.00 0.00 0.00 56 1011.5
20260901122829 87 321 4.0 13.0 0.00 0.00 0.00 54 1011.5
20260901121821 87 26 4.0 11.0 0.00 0.00 0.00 53 1011.5
20260901121322 87 346 5.0 12.0 0.00 0.00 0.00 51 1011.6
20260901120820 87 269 5.0 13.0 0.00 0.00 0.00 50 1011.6
20260901120343 87 329 4.0 13.0 0.00 0.00 0.00 51 1011.5
20260901115818 87 293 4.0 12.0 0.00 0.00 0.00 49 1011.5
20260901115331 87 325 4.0 13.0 0.00 0.00 0.00 48 1011.6
20260901114819 87 242 4.0 13.0 0.00 0.00 0.00 47 1011.6
20260901114326 87 255 4.0 10.0 0.00 0.00 0.00 45 1011.6
20260901113817 88 338 3.0 10.0 0.00 0.00 0.00 44 1011.5
20260901113315 88 20 2.0 8.0 0.00 0.00 0.00 43 1011.5
20260901112816 88 31 2.0 10.0 0.00 0.00 0.00 43 1011.6
20260901112317 88 287 3.0 10.0 0.00 0.00 0.00 42 1011.6
20260901111317 88 11 3.0 10.0 0.00 0.00 0.00 43 1011.6
20260901110815 88 291 3.0 10.0 0.00 0.00 0.00 43 1011.7
20260901110314 87 245 2.0 9.0 0.00 0.00 0.00 43 1011.7
20260901105815 87 302 3.0 9.0 0.00 0.00 0.00 44 1011.7
20260901104814 86 40 1.0 5.0 0.00 0.00 0.00 45 1011.7
20260901104313 86 23 1.0 5.0 0.00 0.00 0.00 45 1011.7
20260901103815 85 119 1.0 4.0 0.00 0.00 0.00 47 1011.8
20260901103314 86 127 1.0 5.0 0.00 0.00 0.00 46 1011.8
20260901102814 86 134 1.0 5.0 0.00 0.00 0.00 47 1011.8
20260901102310 85 144 1.0 5.0 0.00 0.00 0.00 47 1011.8
20260901101807 85 121 1.0 8.0 0.00 0.00 0.00 46 1011.9
20260901101331 86 123 1.0 8.0 0.00 0.00 0.00 46 1011.8
20260901100804 86 120 1.0 4.0 0.00 0.00 0.00 47 1011.9
20260901100308 85 113 1.0 4.0 0.00 0.00 0.00 47 1012.0
20260901095806 85 120 2.0 5.0 0.00 0.00 0.00 47 1012.0
20260901095306 85 142 1.0 5.0 0.00 0.00 0.00 47 1012.0
20260901094308 85 275 1.0 4.0 0.00 0.00 0.00 45 1012.1
20260901093805 85 105 1.0 4.0 0.00 0.00 0.00 46 1012.1
20260901093308 85 32 1.0 4.0 0.00 0.00 0.00 46 1012.1
20260901092807 85 144 1.0 5.0 0.00 0.00 0.00 47 1012.0
20260901091804 84 123 1.0 6.0 0.00 0.00 0.00 46 1012.1
20260901091319 84 150 1.0 7.0 0.00 0.00 0.00 47 1012.1
20260901090803 84 141 2.0 7.0 0.00 0.00 0.00 48 1012.1
20260901090303 84 131 1.0 7.0 0.00 0.00 0.00 48 1012.2
20260901085802 84 165 1.0 7.0 0.00 0.00 0.00 49 1012.2
20260901085300 83 140 1.0 4.0 0.00 0.00 0.00 49 1012.3
20260901083801 83 128 1.0 7.0 0.00 0.00 0.00 48 1012.3
20260901082801 84 117 1.0 4.0 0.00 0.00 0.00 48 1012.4
20260901082250 84 129 1.0 4.0 0.00 0.00 0.00 45 1012.3
20260901081746 84 176 1.0 4.0 0.00 0.00 0.00 44 1012.3
20260901080746 83 213 2.0 5.0 0.00 0.00 0.00 45 1012.4
20260901080246 82 212 2.0 7.0 0.00 0.00 0.00 46 1012.5
20260901075746 82 289 2.0 7.0 0.00 0.00 0.00 45 1012.5
20260901075246 83 273 1.0 4.0 0.00 0.00 0.00 46 1012.5
20260901074741 82 258 0.0 3.0 0.00 0.00 0.00 48 1012.5
20260901074301 81 344 0.0 3.0 0.00 0.00 0.00 48 1012.6
20260901073232 81 151 0.0 3.0 0.00 0.00 0.00 49 1012.8
20260901072725 81 143 0.0 3.0 0.00 0.00 0.00 49 1012.8
20260901072229 81 180 1.0 4.0 0.00 0.00 0.00 49 1012.6